• In Belarus
  • List of Countries
  • For 7 days
  • Water Temperature
  • Weather Map
  • Weather Widgets
  • user-avatar
    Login

    Hourly Weather Eisenstadt

    Today, 16 September, Monday

    Time Temperature Precipitation Wind Pressure Humidity
    00:00 +16°C° 0 mm 1 mps 726 mmHg 84%
    01:00 +16°C° 0 mm 1 mps 726 mmHg 85%
    02:00 +16°C° 0 mm 1 mps 726 mmHg 84%
    03:00 +16°C° 0 mm 1 mps 725 mmHg 84%
    04:00 +16°C° 0 mm 1 mps 725 mmHg 83%
    05:00 +18°C° 0 mm 1 mps 725 mmHg 81%
    06:00 +19°C° 0 mm 1 mps 725 mmHg 79%
    07:00 +20°C° 0 mm 1 mps 725 mmHg 77%
    08:00 +22°C° 0 mm 1 mps 725 mmHg 71%
    09:00 +24°C° 0 mm 1 mps 725 mmHg 64%
    10:00 +26°C° 0 mm 1 mps 725 mmHg 58%
    11:00 +26°C° 0.3 mm 1 mps 725 mmHg 56%
    12:00 +27°C° 0.3 mm 1 mps 725 mmHg 55%
    13:00 +27°C° 0.3 mm 1 mps 724 mmHg 54%
    14:00 +27°C° 0.3 mm 1 mps 724 mmHg 57%
    15:00 +26°C° 0.3 mm 1 mps 724 mmHg 60%
    16:00 +26°C° 0.3 mm 1 mps 723 mmHg 63%
    17:00 +24°C° 0.1 mm 1 mps 723 mmHg 68%
    18:00 +22°C° 0.1 mm 1 mps 723 mmHg 73%
    19:00 +21°C° 0.1 mm 1 mps 723 mmHg 78%
    20:00 +20°C° 0 mm 1 mps 723 mmHg 79%
    21:00 +19°C° 0 mm 2 mps 723 mmHg 80%
    22:00 +18°C° 0 mm 2 mps 723 mmHg 81%
    23:00 +18°C° 0 mm 2 mps 723 mmHg 81%

    Tomorrow, 17 September, Tuesday

    Time Temperature Precipitation Wind Pressure Humidity
    00:00 +19°C° 0 mm 1 mps 723 mmHg 80%
    01:00 +19°C° 0 mm 1 mps 723 mmHg 80%
    02:00 +18°C° 0 mm 1 mps 722 mmHg 80%
    03:00 +18°C° 0 mm 1 mps 722 mmHg 80%
    04:00 +18°C° 0 mm 1 mps 722 mmHg 80%
    05:00 +16°C° 0.1 mm 0 mps 722 mmHg 80%
    06:00 +16°C° 0.1 mm 0 mps 722 mmHg 80%
    07:00 +17°C° 0.1 mm 0 mps 722 mmHg 80%
    08:00 +18°C° 0.3 mm 0 mps 722 mmHg 77%
    09:00 +21°C° 0.3 mm 1 mps 723 mmHg 75%
    10:00 +21°C° 0.3 mm 1 mps 723 mmHg 72%
    11:00 +22°C° 0.4 mm 1 mps 723 mmHg 69%
    12:00 +22°C° 0.4 mm 1 mps 722 mmHg 65%
    13:00 +23°C° 0.4 mm 2 mps 722 mmHg 62%
    14:00 +21°C° 0.2 mm 2 mps 722 mmHg 64%
    15:00 +21°C° 0.2 mm 2 mps 721 mmHg 65%
    16:00 +21°C° 0.2 mm 2 mps 721 mmHg 67%
    17:00 +19°C° 0 mm 2 mps 721 mmHg 70%
    18:00 +18°C° 0 mm 2 mps 721 mmHg 73%
    19:00 +17°C° 0 mm 2 mps 721 mmHg 76%
    20:00 +16°C° 0 mm 3 mps 721 mmHg 77%
    21:00 +16°C° 0 mm 3 mps 722 mmHg 78%
    22:00 +14°C° 0 mm 4 mps 722 mmHg 78%
    23:00 +13°C° 0 mm 4 mps 723 mmHg 76%

    Day after tomorrow, 18 September, Wednesday

    Time Temperature Precipitation Wind Pressure Humidity
    00:00 +13°C° 0 mm 5 mps 723 mmHg 74%
    01:00 +12°C° 0 mm 5 mps 723 mmHg 72%
    02:00 +10°C° 0 mm 6 mps 724 mmHg 70%
    03:00 +9°C° 0 mm 6 mps 724 mmHg 69%
    04:00 +9°C° 0 mm 6 mps 725 mmHg 67%
    05:00 +8°C° 0 mm 6 mps 725 mmHg 65%
    06:00 +8°C° 0 mm 6 mps 726 mmHg 63%
    07:00 +8°C° 0 mm 6 mps 727 mmHg 61%
    08:00 +10°C° 0 mm 5 mps 727 mmHg 53%
    09:00 +12°C° 0 mm 4 mps 728 mmHg 45%
    10:00 +14°C° 0 mm 4 mps 728 mmHg 37%
    11:00 +16°C° 0 mm 3 mps 728 mmHg 36%
    12:00 +17°C° 0 mm 3 mps 728 mmHg 34%
    13:00 +17°C° 0 mm 2 mps 728 mmHg 33%
    14:00 +17°C° 0 mm 2 mps 727 mmHg 36%
    15:00 +17°C° 0 mm 2 mps 727 mmHg 39%
    16:00 +16°C° 0 mm 1 mps 727 mmHg 42%
    17:00 +14°C° 0 mm 1 mps 727 mmHg 50%
    18:00 +12°C° 0 mm 1 mps 727 mmHg 57%
    19:00 +11°C° 0 mm 1 mps 727 mmHg 65%
    20:00 +10°C° 0 mm 1 mps 727 mmHg 67%
    21:00 +10°C° 0 mm 1 mps 727 mmHg 68%
    22:00 +9°C° 0 mm 1 mps 728 mmHg 70%
    23:00 +9°C° 0 mm 1 mps 728 mmHg 68%

    19 September, Thursday

    Time Temperature Precipitation Wind Pressure Humidity
    00:00 +9°C° 0 mm 1 mps 728 mmHg 67%
    01:00 +8°C° 0 mm 1 mps 728 mmHg 66%
    02:00 +8°C° 0 mm 1 mps 728 mmHg 66%
    03:00 +8°C° 0 mm 1 mps 728 mmHg 66%
    04:00 +7°C° 0 mm 1 mps 727 mmHg 66%
    05:00 +8°C° 0 mm 1 mps 728 mmHg 65%
    06:00 +8°C° 0 mm 2 mps 728 mmHg 65%
    07:00 +8°C° 0 mm 2 mps 728 mmHg 64%
    08:00 +10°C° 0 mm 2 mps 728 mmHg 59%
    09:00 +12°C° 0 mm 2 mps 729 mmHg 55%
    10:00 +13°C° 0 mm 3 mps 729 mmHg 51%
    11:00 +13°C° 0 mm 3 mps 729 mmHg 49%
    12:00 +14°C° 0 mm 3 mps 729 mmHg 47%
    13:00 +16°C° 0 mm 3 mps 729 mmHg 45%
    14:00 +14°C° 0 mm 3 mps 729 mmHg 44%
    15:00 +14°C° 0 mm 3 mps 728 mmHg 44%
    16:00 +14°C° 0 mm 4 mps 728 mmHg 43%
    17:00 +12°C° 0 mm 3 mps 729 mmHg 48%
    18:00 +10°C° 0 mm 3 mps 729 mmHg 53%
    19:00 +9°C° 0 mm 2 mps 729 mmHg 57%
    20:00 +8°C° 0 mm 2 mps 730 mmHg 60%
    21:00 +8°C° 0 mm 3 mps 730 mmHg 62%
    22:00 +7°C° 0 mm 3 mps 730 mmHg 65%
    23:00 +7°C° 0 mm 2 mps 730 mmHg 67%

    20 September, Friday

    Time Temperature Precipitation Wind Pressure Humidity
    00:00 +6°C° 0 mm 2 mps 731 mmHg 68%
    01:00 +6°C° 0 mm 2 mps 731 mmHg 70%
    02:00 +6°C° 0 mm 2 mps 731 mmHg 71%
    03:00 +6°C° 0 mm 2 mps 731 mmHg 72%
    04:00 +5°C° 0 mm 2 mps 730 mmHg 72%
    05:00 +6°C° 0 mm 2 mps 730 mmHg 71%
    06:00 +7°C° 0 mm 2 mps 731 mmHg 69%
    07:00 +9°C° 0 mm 1 mps 731 mmHg 68%
    08:00 +9°C° 0 mm 2 mps 731 mmHg 61%
    09:00 +12°C° 0 mm 2 mps 731 mmHg 54%
    10:00 +14°C° 0 mm 2 mps 732 mmHg 47%
    11:00 +15°C° 0 mm 2 mps 731 mmHg 44%
    12:00 +16°C° 0 mm 2 mps 731 mmHg 41%
    13:00 +16°C° 0 mm 2 mps 730 mmHg 38%
    14:00 +16°C° 0 mm 2 mps 730 mmHg 38%
    15:00 +16°C° 0 mm 2 mps 730 mmHg 39%
    16:00 +16°C° 0 mm 2 mps 729 mmHg 40%
    17:00 +14°C° 0 mm 1 mps 729 mmHg 46%
    18:00 +12°C° 0 mm 1 mps 729 mmHg 51%
    19:00 +10°C° 0 mm 1 mps 729 mmHg 57%
    20:00 +9°C° 0 mm 1 mps 730 mmHg 58%
    21:00 +9°C° 0 mm 1 mps 730 mmHg 59%
    22:00 +8°C° 0 mm 1 mps 730 mmHg 59%
    23:00 +8°C° 0 mm 1 mps 730 mmHg 60%

    21 September, Saturday

    Time Temperature Precipitation Wind Pressure Humidity
    00:00 +8°C° 0 mm 1 mps 730 mmHg 60%
    01:00 +6°C° 0 mm 0 mps 730 mmHg 60%
    02:00 +7°C° 0 mm 1 mps 729 mmHg 61%
    03:00 +7°C° 0 mm 1 mps 729 mmHg 61%
    04:00 +7°C° 0 mm 1 mps 729 mmHg 62%
    05:00 +7°C° 0 mm 1 mps 729 mmHg 60%
    06:00 +8°C° 0 mm 1 mps 729 mmHg 59%
    07:00 +9°C° 0 mm 1 mps 729 mmHg 58%
    08:00 +11°C° 0 mm 1 mps 729 mmHg 52%
    09:00 +13°C° 0 mm 2 mps 730 mmHg 45%
    10:00 +14°C° 0 mm 3 mps 730 mmHg 39%
    11:00 +16°C° 0 mm 3 mps 730 mmHg 38%
    12:00 +17°C° 0 mm 3 mps 729 mmHg 36%
    13:00 +18°C° 0 mm 3 mps 729 mmHg 35%
    14:00 +18°C° 0 mm 3 mps 729 mmHg 37%
    15:00 +18°C° 0 mm 3 mps 728 mmHg 39%
    16:00 +17°C° 0 mm 3 mps 728 mmHg 41%
    17:00 +14°C° 0 mm 3 mps 728 mmHg 47%
    18:00 +13°C° 0 mm 2 mps 728 mmHg 53%
    19:00 +10°C° 0 mm 2 mps 728 mmHg 59%
    20:00 +10°C° 0 mm 2 mps 728 mmHg 60%
    21:00 +9°C° 0 mm 2 mps 728 mmHg 61%
    22:00 +10°C° 0 mm 1 mps 728 mmHg 63%
    23:00 +9°C° 0 mm 2 mps 728 mmHg 63%
    Show more